星链-31318 (STARLINK-31318 )

导读

STARLINK-31318是美国SpaceX星链互联网卫星项目中的一颗卫星,于2024年1月29日发射升空。作为星链星座的组成部分,它旨在为全球偏远地区、海上及航空场景提供低延迟高速互联网服务,依托低轨轨道部署,助力星链网络进一步完善全球覆盖能力。

基本信息
目录编号:
58885
目录名称:
STARLINK-31318
国际标识:
2024-020K
轨道中心:
EARTH
卫星名称:
星链-31318
卫星全名:
星链-31318 (STARLINK-31318 )
卫星状态:
在轨 (已飞行871 天)
发射日期:
2024-01-29 UTC
国别 :
美国 (US)
星等 :
--
轨道信息
数据来源 国际轨道数据 AOE轨道数据
星历时间 2026-06-17T18:04:11+0800
20小时前
查看轨道信息
2026-06-15T04:00:00+0800
3天前
查看轨道信息
半长轴 6848.856km 6848.835km
偏心率 0.0001149 0.0001962
轨道倾角 53.160° 53.162°
近地点辐角 75.805° 158.334°
升交点赤经 218.934° 230.973°
平近点角 284.308° 333.018°
近地点 469.932km 469.354km
远地点 471.506km 472.042km
周期 94.013分钟 94.012分钟
每日圈数 15.317073 15.317142
详细信息
固有亮度:
5
最大亮度:
0.3
卫星平台:
Starlink v2.0 mini
覆盖范围:
全球
运营商:
太空探索技术公司
运营商所在国:
美国
制造商(研发单位):
太空探索技术公司
制造商所在国:
美国
使用方式:
暂无
卫星简介
星链(Starlink)计划是由太空探索技术公司(SpaceX)提出的一个巨型低轨卫星互联网星座项目,计划在2019年至2024年间在太空搭建由约1.2万颗卫星组成的“星链”网络,其中1584颗将部署在地球上空550千米处的近地轨道,并从2020年开始工作。该卫星仍在工作。
2D轨道图
3D轨道图
轨道高度分析图
轨道倾角分析图
轨道综合分析图
查看轨道综合分析图